Regional Weather Roundup
Issued by NWS

Home | Current Version | Previous Version | Graphics & Text | Print | Product List | Glossary On
Versions: 1 2 3 4 5 6 7 8 9 10 11 12 13 14 15 16 17 18 19 20 21 22 23 24 25 26 27 28 29 30 31 32 33 34 35 36 37 38 39 40 41 42 43 44 45 46 47 48 49 50
000
ASUS43 KFSD 021502
RWRSD

WEATHER ROUNDUP FOR SOUTH DAKOTA
NATIONAL WEATHER SERVICE SIOUX FALLS SD
1000 AM CDT THU OCT 02 2014

NOTE: "FAIR" INDICATES FEW OR NO CLOUDS BELOW 12,000 FEET WITH NO
SIGNIFICANT WEATHER AND/OR OBSTRUCTIONS TO VISIBILITY.


SDZ001>005-009-010-012>017-021600-
NORTHWEST AND NORTH CENTRAL SOUTH DAKOTA

CITY           SKY/WX    TMP DP  RH WIND       PRES   REMARKS
BUFFALO          N/A     46  39  76 W9        29.88S
FAITH            N/A     51  40  65 SW10      29.93F
MOBRIDGE       FAIR      52  43  71 W5        29.90R
$$

SDZ012>016-024>037-041>051-057-063-072>074-021600-
SOUTHWEST AND SOUTH CENTRAL SOUTH DAKOTA

CITY           SKY/WX    TMP DP  RH WIND       PRES   REMARKS
RAPID CTY ARPT FAIR      52  39  61 W3        29.99F
PIERRE         FAIR      50  45  83 SW7       29.94R
CUSTER         FAIR      45  34  65 W5        30.03F
ELLSWORTH AFB  FAIR      53  38  57 W12       29.98F
PHILIP         FAIR      49  43  80 SW9       29.98R
PINE RIDGE     FAIR      47  42  83 SW8       30.04S
WINNER         FAIR      55  47  74 NW10      29.96S
$$

SDZ004>011-016>023-039-040-021600-
NORTHEAST SOUTH DAKOTA

CITY           SKY/WX    TMP DP  RH WIND       PRES   REMARKS
ABERDEEN       FAIR      54  49  83 W6        29.90R
WATERTOWN      LGT RAIN  52  50  93 W5        29.89S
SISSETON         N/A     55  51  86 CALM      29.86S
$$

SDZ017-020-022-023-036>040-048>070-021600-
SOUTHEAST SOUTH DAKOTA

CITY           SKY/WX    TMP DP  RH WIND       PRES   REMARKS
SIOUX FALLS    LGT RAIN  54  52  93 N8        29.89S
HURON          FAIR      53  49  86 NW5       29.91R
CHAMBERLAIN    FAIR      53  48  83 NW9       29.95R
MITCHELL       FAIR      55  52  89 W6        29.94R
YANKTON        PTSUNNY   54  52  94 NW9       29.92R
$$

ABBREVIATIONS USED IN REMARKS
   TC - TEMPERATURE IN CELSIUS
  WCI - WIND CHILL INDEX
   HX - HEAT INDEX
  VSB - VISIBILITY



USA.gov is the U.S. government's official web portal to all federal, state and local government web resources and services.